CW9514 Weather Reports


time (UTC)temp
C
wind
direction
speed
KPH
gust
KPH
rain 1hr
cm
rain 24hr
cm
rain mn
cm
humidity
%
barometer
mb
20190823023207 13 169 1.6 6.4 0.00 0.00 0.00 92 1024.6
20190823021717 13 169 1.6 6.4 0.00 0.00 0.00 92 1024.6
20190823020218 13 169 1.6 3.2 0.00 0.00 0.00 91 1024.7
20190823014705 13 163 1.6 8.0 0.00 0.00 0.00 91 1024.7
20190823013209 13 153 3.2 6.4 0.00 0.00 0.00 91 1024.7
20190823011704 13 167 1.6 6.4 0.00 0.00 0.00 91 1024.8
20190823010219 13 136 1.6 4.8 0.00 0.00 0.00 90 1024.7
20190823004707 13 65 0.0 3.2 0.00 0.00 0.00 89 1024.7
20190823003212 13 65 0.0 1.6 0.00 0.00 0.00 89 1024.8
20190823001710 13 65 0.0 4.8 0.00 0.00 0.00 89 1024.8
20190823000216 13 25 0.0 3.2 0.00 0.00 0.00 88 1024.8
20190822234717 13 25 0.0 1.6 0.00 0.00 0.00 88 1024.8
20190822233209 13 25 0.0 1.6 0.00 0.00 0.00 87 1024.8
20190822231717 13 25 0.0 1.6 0.00 0.00 0.00 87 1024.8
20190822230209 13 25 0.0 1.6 0.00 0.00 0.00 86 1024.7
20190822224717 13 25 0.0 1.6 0.00 0.00 0.00 85 1024.7
20190822223229 13 25 0.0 0.0 0.00 0.00 0.00 85 1024.7
20190822221719 13 25 0.0 0.0 0.00 0.00 0.00 85 1024.6
20190822220224 14 25 0.0 0.0 0.00 0.00 0.00 84 1024.5
20190822214705 14 25 0.0 1.6 0.00 0.00 0.00 84 1024.5
20190822213214 14 25 0.0 1.6 0.00 0.00 0.00 84 1024.5
20190822211720 14 25 0.0 0.0 0.00 0.00 0.00 83 1024.6
20190822210232 15 25 0.0 0.0 0.00 0.00 0.00 83 1024.5
20190822204718 15 25 0.0 0.0 0.00 0.00 0.00 82 1024.6
20190822203234 15 25 0.0 0.0 0.00 0.00 0.00 82 1024.6
20190822201721 15 25 0.0 0.0 0.00 0.00 0.00 81 1024.4
20190822200240 16 25 0.0 0.0 0.00 0.00 0.00 80 1024.4
20190822194741 16 25 0.0 0.0 0.00 0.00 0.00 78 1024.4
20190822193218 17 25 0.0 0.0 0.00 0.00 0.00 76 1024.4
20190822191717 17 25 0.0 0.0 0.00 0.00 0.00 74 1024.4
20190822190207 18 25 0.0 0.0 0.00 0.00 0.00 71 1024.2
20190822184714 18 25 0.0 0.0 0.00 0.00 0.00 69 1024.1
20190822183217 19 25 0.0 3.2 0.00 0.00 0.00 68 1024.0
20190822181711 20 25 0.0 4.8 0.00 0.00 0.00 67 1023.9
20190822180221 20 321 1.6 3.2 0.00 0.00 0.00 66 1023.8
20190822174720 21 321 0.0 6.4 0.00 0.00 0.00 64 1023.7
20190822173225 21 0 1.6 8.0 0.00 0.00 0.00 62 1023.8
20190822171709 22 305 1.6 14.5 0.00 0.00 0.00 60 1023.6
20190822170217 23 355 3.2 11.3 0.00 0.00 0.00 57 1023.5
20190822164727 23 300 3.2 12.9 0.00 0.00 0.00 56 1023.5
20190822163214 25 323 3.2 17.7 0.00 0.00 0.00 54 1023.3
20190822161718 25 273 6.4 16.1 0.00 0.00 0.00 50 1023.2
20190822160210 25 242 6.4 16.1 0.00 0.00 0.00 50 1023.2
20190822154712 25 252 8.0 14.5 0.00 0.00 0.00 48 1023.1
20190822153231 26 233 6.4 14.5 0.00 0.00 0.00 49 1023.1
20190822151709 26 259 4.8 16.1 0.00 0.00 0.00 48 1023.1
20190822150215 25 184 6.4 20.9 0.00 0.00 0.00 48 1023.3
20190822144719 25 258 8.0 16.1 0.00 0.00 0.00 50 1023.4
20190822143224 25 195 6.4 17.7 0.00 0.00 0.00 50 1023.5
20190822141732 25 246 6.4 17.7 0.00 0.00 0.00 49 1023.5
20190822140224 25 192 6.4 17.7 0.00 0.00 0.00 49 1023.5
20190822134710 25 197 6.4 17.7 0.00 0.00 0.00 47 1023.7
20190822133208 26 230 8.0 19.3 0.00 0.00 0.00 46 1023.8
20190822131717 25 251 8.0 19.3 0.00 0.00 0.00 47 1023.9
20190822130215 25 203 6.4 17.7 0.00 0.00 0.00 47 1023.9
20190822124722 25 209 6.4 19.3 0.00 0.00 0.00 49 1024.1
20190822123226 25 186 6.4 20.9 0.00 0.00 0.00 47 1024.1
20190822121712 25 208 4.8 17.7 0.00 0.00 0.00 48 1024.1
20190822120216 25 228 8.0 20.9 0.00 0.00 0.00 46 1024.2
20190822114715 25 177 6.4 20.9 0.00 0.00 0.00 49 1024.3
20190822113216 25 240 8.0 20.9 0.00 0.00 0.00 49 1024.3
20190822111717 25 190 6.4 17.7 0.00 0.00 0.00 50 1024.4
20190822110217 24 246 6.4 17.7 0.00 0.00 0.00 50 1024.5
20190822104704 24 269 9.7 24.1 0.00 0.00 0.00 51 1024.6
20190822103208 23 219 4.8 12.9 0.00 0.00 0.00 53 1024.7
20190822101707 23 198 4.8 14.5 0.00 0.00 0.00 55 1024.9
20190822100212 22 190 6.4 14.5 0.00 0.00 0.00 55 1025.0
20190822094724 22 203 4.8 16.1 0.00 0.00 0.00 60 1025.1
20190822093208 21 154 6.4 17.7 0.00 0.00 0.00 62 1025.2
20190822090219 20 180 8.0 16.1 0.00 0.00 0.00 65 1025.3
20190822084714 18 156 6.4 17.7 0.00 0.00 0.00 69 1025.2
20190822083210 18 188 4.8 16.1 0.00 0.00 0.00 71 1025.3
20190822081716 17 190 6.4 19.3 0.00 0.00 0.00 74 1025.3
20190822080211 17 173 4.8 16.1 0.00 0.00 0.00 75 1025.3
20190822074707 16 158 8.0 16.1 0.00 0.00 0.00 74 1025.4
20190822073207 16 177 4.8 14.5 0.00 0.05 0.00 77 1025.5
20190822071710 15 145 4.8 14.5 0.00 0.05 0.00 79 1025.6
20190822070211 15 178 6.4 12.9 0.00 0.05 0.00 81 1025.6
20190822064710 14 159 3.2 12.9 0.00 0.05 0.00 84 1025.6
20190822061715 12 121 3.2 12.9 0.00 0.10 0.00 89 1025.8
20190822060208 12 138 3.2 9.7 0.00 0.10 0.00 90 1025.9
20190822054719 12 130 3.2 8.0 0.00 0.13 0.00 90 1025.8
20190822053211 12 123 1.6 6.4 0.00 0.13 0.00 90 1025.8
20190822051717 12 136 3.2 6.4 0.00 0.13 0.00 90 1025.7
20190822050212 12 111 1.6 6.4 0.00 0.13 0.00 90 1025.7
20190822044713 12 115 1.6 4.8 0.00 0.13 0.00 90 1025.8
20190822043218 12 126 1.6 4.8 0.00 0.13 0.00 90 1025.8
20190822041716 12 123 1.6 6.4 0.00 0.13 0.00 90 1025.9
20190822040205 12 128 1.6 6.4 0.00 0.13 0.00 90 1026.0
20190822034706 12 125 1.6 6.4 0.00 0.13 0.00 90 1026.1
20190822033208 12 145 1.6 6.4 0.00 0.13 0.00 90 1026.1
20190822031706 12 138 1.6 4.8 0.00 0.13 0.00 90 1026.2
20190822030218 12 121 1.6 6.4 0.00 0.13 0.00 90 1026.3
20190822024713 12 140 1.6 4.8 0.00 0.13 0.00 91 1026.5